Hourly Weather Cerkovische

Today, 15 June, Tuesday

Time Temperature Precipitation Wind Pressure Humidity
00:00 +13°C° 0 mm 0 mps 748 mmHg 91%
01:00 +12°C° 0 mm 0 mps 748 mmHg 92%
02:00 +12°C° 0 mm 0 mps 748 mmHg 93%
03:00 +13°C° 0 mm 0 mps 748 mmHg 91%
04:00 +14°C° 0 mm 1 mps 748 mmHg 89%
05:00 +15°C° 0 mm 1 mps 748 mmHg 87%
06:00 +18°C° 0 mm 1 mps 747 mmHg 79%
07:00 +19°C° 0 mm 2 mps 747 mmHg 72%
08:00 +20°C° 0 mm 2 mps 747 mmHg 64%
09:00 +21°C° 0 mm 2 mps 747 mmHg 60%
10:00 +22°C° 0 mm 3 mps 747 mmHg 56%
11:00 +24°C° 0 mm 3 mps 747 mmHg 51%
12:00 +25°C° 0 mm 3 mps 746 mmHg 47%
13:00 +25°C° 0 mm 3 mps 746 mmHg 42%
14:00 +25°C° 0 mm 3 mps 746 mmHg 40%
15:00 +25°C° 0 mm 3 mps 746 mmHg 43%
16:00 +25°C° 0 mm 3 mps 745 mmHg 45%
17:00 +25°C° 0 mm 2 mps 745 mmHg 48%
18:00 +23°C° 0 mm 2 mps 745 mmHg 58%
19:00 +20°C° 0 mm 2 mps 745 mmHg 69%
20:00 +18°C° 0 mm 2 mps 745 mmHg 79%
21:00 +17°C° 0 mm 2 mps 745 mmHg 85%
22:00 +16°C° 0 mm 2 mps 745 mmHg 90%
23:00 +15°C° 0 mm 1 mps 746 mmHg 96%

Tomorrow, 16 June, Wednesday

Time Temperature Precipitation Wind Pressure Humidity
00:00 +15°C° 0 mm 1 mps 746 mmHg 96%
01:00 +14°C° 0 mm 1 mps 746 mmHg 97%
02:00 +14°C° 0 mm 1 mps 747 mmHg 97%
03:00 +14°C° 0 mm 2 mps 747 mmHg 96%
04:00 +13°C° 0 mm 2 mps 747 mmHg 94%
05:00 +13°C° 0 mm 2 mps 747 mmHg 93%
06:00 +15°C° 0 mm 2 mps 748 mmHg 80%
07:00 +16°C° 0 mm 2 mps 748 mmHg 67%
08:00 +18°C° 0 mm 3 mps 748 mmHg 54%
09:00 +19°C° 0 mm 3 mps 749 mmHg 51%
10:00 +20°C° 0 mm 3 mps 749 mmHg 47%
11:00 +20°C° 0 mm 3 mps 749 mmHg 44%
12:00 +21°C° 0 mm 3 mps 749 mmHg 41%
13:00 +22°C° 0 mm 3 mps 749 mmHg 38%
14:00 +24°C° 0 mm 3 mps 749 mmHg 35%
15:00 +22°C° 0 mm 3 mps 749 mmHg 37%
16:00 +23°C° 0 mm 2 mps 750 mmHg 40%
17:00 +23°C° 0 mm 2 mps 750 mmHg 43%
18:00 +20°C° 0 mm 2 mps 750 mmHg 52%
19:00 +18°C° 0 mm 2 mps 750 mmHg 61%
20:00 +16°C° 0 mm 2 mps 751 mmHg 70%
21:00 +15°C° 0 mm 1 mps 751 mmHg 70%
22:00 +14°C° 0 mm 1 mps 751 mmHg 70%
23:00 +13°C° 0 mm 1 mps 752 mmHg 70%

Day after tomorrow, 17 June, Thursday

Time Temperature Precipitation Wind Pressure Humidity
00:00 +13°C° 0 mm 1 mps 752 mmHg 71%
01:00 +12°C° 0 mm 1 mps 752 mmHg 72%
02:00 +11°C° 0 mm 1 mps 753 mmHg 73%
03:00 +12°C° 0 mm 1 mps 753 mmHg 73%
04:00 +13°C° 0 mm 1 mps 753 mmHg 73%
05:00 +12°C° 0 mm 0 mps 753 mmHg 73%
06:00 +14°C° 0 mm 0 mps 754 mmHg 65%
07:00 +17°C° 0 mm 0 mps 754 mmHg 58%
08:00 +19°C° 0 mm 0 mps 754 mmHg 50%
09:00 +21°C° 0 mm 0 mps 754 mmHg 46%
10:00 +22°C° 0 mm 0 mps 755 mmHg 42%
11:00 +24°C° 0 mm 0 mps 755 mmHg 38%
12:00 +24°C° 0 mm 0 mps 755 mmHg 36%
13:00 +25°C° 0 mm 0 mps 755 mmHg 35%
14:00 +25°C° 0 mm 0 mps 755 mmHg 34%
15:00 +25°C° 0 mm 0 mps 754 mmHg 35%
16:00 +25°C° 0 mm 0 mps 754 mmHg 37%
17:00 +24°C° 0 mm 0 mps 754 mmHg 39%
18:00 +22°C° 0 mm 0 mps 754 mmHg 48%
19:00 +22°C° 0 mm 1 mps 754 mmHg 58%
20:00 +20°C° 0 mm 1 mps 754 mmHg 67%
21:00 +19°C° 0 mm 1 mps 755 mmHg 69%
22:00 +18°C° 0 mm 1 mps 755 mmHg 71%
23:00 +16°C° 0 mm 1 mps 755 mmHg 72%

18 June, Friday

Time Temperature Precipitation Wind Pressure Humidity
00:00 +15°C° 0 mm 1 mps 755 mmHg 75%
01:00 +14°C° 0 mm 0 mps 755 mmHg 77%
02:00 +13°C° 0 mm 0 mps 755 mmHg 80%
03:00 +15°C° 0 mm 1 mps 755 mmHg 80%
04:00 +15°C° 0 mm 1 mps 756 mmHg 79%
05:00 +16°C° 0 mm 1 mps 756 mmHg 79%
06:00 +19°C° 0 mm 1 mps 756 mmHg 72%
07:00 +21°C° 0 mm 1 mps 756 mmHg 65%
08:00 +23°C° 0 mm 2 mps 756 mmHg 58%
09:00 +25°C° 0 mm 2 mps 756 mmHg 53%
10:00 +26°C° 0 mm 2 mps 756 mmHg 48%
11:00 +27°C° 0 mm 3 mps 756 mmHg 43%
12:00 +28°C° 0 mm 3 mps 756 mmHg 42%
13:00 +28°C° 0 mm 3 mps 755 mmHg 41%
14:00 +29°C° 0 mm 3 mps 755 mmHg 40%
15:00 +28°C° 0 mm 3 mps 755 mmHg 43%
16:00 +28°C° 0 mm 3 mps 755 mmHg 46%
17:00 +28°C° 0 mm 3 mps 755 mmHg 49%
18:00 +25°C° 0 mm 2 mps 755 mmHg 59%
19:00 +23°C° 0 mm 2 mps 755 mmHg 69%
20:00 +20°C° 0 mm 2 mps 755 mmHg 80%
21:00 +19°C° 0 mm 2 mps 755 mmHg 84%
22:00 +18°C° 0 mm 2 mps 755 mmHg 88%
23:00 +17°C° 0 mm 2 mps 755 mmHg 92%

19 June, Saturday

Time Temperature Precipitation Wind Pressure Humidity
00:00 +16°C° 0 mm 2 mps 755 mmHg 92%
01:00 +16°C° 0 mm 2 mps 756 mmHg 93%
02:00 +15°C° 0 mm 2 mps 756 mmHg 94%
03:00 +16°C° 0 mm 2 mps 756 mmHg 92%
04:00 +16°C° 0 mm 1 mps 756 mmHg 90%
05:00 +16°C° 0 mm 1 mps 756 mmHg 88%
06:00 +19°C° 0 mm 2 mps 756 mmHg 80%
07:00 +21°C° 0 mm 2 mps 756 mmHg 71%
08:00 +24°C° 0 mm 2 mps 756 mmHg 63%
09:00 +25°C° 0 mm 2 mps 756 mmHg 57%
10:00 +26°C° 0 mm 2 mps 756 mmHg 52%
11:00 +28°C° 0 mm 2 mps 756 mmHg 46%
12:00 +28°C° 0 mm 3 mps 755 mmHg 45%
13:00 +29°C° 0 mm 3 mps 755 mmHg 44%
14:00 +29°C° 0 mm 3 mps 755 mmHg 42%
15:00 +29°C° 0 mm 3 mps 755 mmHg 45%
16:00 +29°C° 0 mm 3 mps 754 mmHg 47%
17:00 +28°C° 0 mm 2 mps 754 mmHg 49%
18:00 +26°C° 0 mm 2 mps 754 mmHg 59%
19:00 +24°C° 0 mm 2 mps 754 mmHg 70%
20:00 +21°C° 0 mm 2 mps 754 mmHg 80%
21:00 +20°C° 0 mm 2 mps 754 mmHg 84%
22:00 +19°C° 0 mm 2 mps 754 mmHg 88%
23:00 +18°C° 0 mm 2 mps 754 mmHg 92%

20 June, Sunday

Time Temperature Precipitation Wind Pressure Humidity
00:00 +17°C° 0 mm 2 mps 754 mmHg 93%
01:00 +17°C° 0 mm 2 mps 754 mmHg 94%
02:00 +16°C° 0 mm 2 mps 754 mmHg 94%
03:00 +18°C° 0 mm 1 mps 754 mmHg 93%
04:00 +18°C° 0 mm 1 mps 755 mmHg 91%
05:00 +18°C° 0 mm 1 mps 755 mmHg 89%
06:00 +20°C° 0 mm 1 mps 755 mmHg 81%
07:00 +21°C° 0 mm 2 mps 754 mmHg 72%
08:00 +24°C° 0 mm 2 mps 754 mmHg 63%
09:00 +25°C° 0 mm 2 mps 754 mmHg 58%
10:00 +27°C° 0 mm 3 mps 754 mmHg 52%
11:00 +28°C° 0 mm 3 mps 754 mmHg 47%
12:00 +28°C° 0 mm 3 mps 753 mmHg 46%
13:00 +29°C° 0 mm 3 mps 753 mmHg 44%
14:00 +29°C° 0 mm 3 mps 753 mmHg 42%
15:00 +29°C° 0 mm 3 mps 753 mmHg 44%
16:00 +29°C° 0 mm 3 mps 752 mmHg 46%
17:00 +29°C° 0 mm 2 mps 752 mmHg 48%
18:00 +27°C° 0 mm 2 mps 752 mmHg 58%
19:00 +25°C° 0 mm 2 mps 752 mmHg 68%
20:00 +23°C° 0 mm 2 mps 752 mmHg 79%
21:00 +21°C° 0 mm 2 mps 752 mmHg 82%
22:00 +20°C° 0 mm 2 mps 752 mmHg 86%
23:00 +19°C° 0 mm 2 mps 752 mmHg 90%
Show more

We Need Your Consent

Meteoprog and our Service Providers may store and access personal data such as cookies, device identifiers or other similar technologies on your device and process such data to personalise content and ads, as well as provide social media features and to analyse the traffic.

  • Store and/or access information on your device

    Cookies, device identifiers or other information can be stored or accessed on your device for the purposes indicated above.

  • Personalised ads and content, ad and content measurement, audience insights, and products development

    Ads and content can be personalised based on a profile. More data can be added to better personalise ads and content. Ad and content performance can be measured. Insights about the audience who saw the ads and content can be derived. Such data can be used to develop or improve user’s experience, systems and software.

By clicking ‘I Agree’ you will allow the use of indicated cookies, device identifiers, web beacons or other similar technologies. Your settings can be changed in the browser on your device.

For certain purposes, legitimate interests may be relied on, rather than consent. You can read more about this in our Privacy and Cookie Policy.